Location: Shenandoah County Park
(38.9356°N, 78.4524°W)
Time: 19:14:34
(UTC-05:00)

A-11 Canister half - Pass Details

Date: 19 December 2023
Orbit: 1526 x 1682 km, 47.3° (Epoch: 01 March)

Event Time Altitude Azimuth Distance (km) Brightness Sun altitude
Rises 15:56:36 0° 247° (WSW) 4,861 13.4 8.3°
Reaches altitude 10° 15:59:43 10° 249° (WSW) 3,893 12.9 7.9°
Maximum altitude 16:09:46 75° 335° (NNW) 1,726 9.4 6.3°
Drops below altitude 10° 16:19:59 10° 61° (ENE) 3,946 10.5 4.7°
Sets 16:23:10 0° 63° (ENE) 4,930 11.0 4.2°
